Погода в Сен-Роман

Монако     43°45′02″N   7°26′08″E
темп.,
°C
ветер,
м/с
пор.,
м/с
влажн.,
%
обл.,
%
осадки,
мм/ч
давл.,
гПа
погр.,
м
1 марта, пн
пн101:00+13ссз11570 0.0 102952
04:00+12сз11461 0.0 1028217
07:00+12св114537 0.0 1029216
10:00+12ююв224815 0.0 1029224
13:00+12в34588 0.0 1029284
16:00+13в33580 0.0 1028386
19:00+13с12650 0.0 102987
22:00+13ссз44433 0.0 103071
2 марта, вт
вт201:00+12с32412 0.0 1031152
04:00+12с33360 0.0 103093
07:00+12ссз333513 0.0 103276
10:00+12юв213258 0.0 1032127
13:00+12юв013870 0.0 1032147
16:00+13зюз1245100 0.0 1031107
19:00+13з1155100 0.0 103243
22:00+13в016272 0.0 103223
3 марта, ср
ср301:00+13с225373 0.0 103236
04:00+13ссв225176 0.0 103135
07:00+12ссз224744 0.0 103170
10:00+13юв22441 0.0 1031155
13:00+12вюв225038 0.0 1030175
16:00+12в236797 0.0 1028222
19:00+12всв237199 0.0 1028295
22:00+12св116673 0.0 1028241
4 марта, чт
чт401:00+12зсз016536 0.0 1027326
04:00+11с016818 0.0 1025330
07:00+11ссз116223 0.0 1024159
10:00+11ююз01640 0.0 1024416
13:00+11ю22730 0.0 1022326
16:00+11ю12750 0.0 1020379
19:00+11юз12710 0.0 1019322
22:00+12юз126940 0.0 1019517
5 марта, пт
пт501:00+11ссв227437 0.0 1018212
04:00+11ссз116934 0.0 1017165
07:00+11юз117230 0.0 1016324
10:00+11ююв117363 0.0 1016307
13:00+11юз447479 0.0 1015358
16:00+13юз577599 0.0 1014744
19:00+13ю237296 0.0 1014682
22:00+13ссв557798 0.0 1016328